• In Österreich
  • Länderverzeichnis
  • Für 7 Tage
  • Wassertemperatur
  • Satellitenkarten
  • Wetterkarte
  • News
  • Widgets
  • user-avatar
    Anmelden

    Stündliche Wetter Dubrovka (Mezhevo)

    Heute, 26 September, Mittwoch

    Zeit Temperatur Niederschläge Wind Luftdruck Luftfeuchtigkeit
    00:00 +1°C° 0 mm 4 m/S 750 mmHg 77%
    01:00 +1°C° 0 mm 4 m/S 751 mmHg 78%
    02:00 0°C° 0 mm 4 m/S 751 mmHg 79%
    03:00 0°C° 0 mm 4 m/S 751 mmHg 82%
    04:00 +1°C° 0 mm 3 m/S 752 mmHg 86%
    05:00 +1°C° 0 mm 3 m/S 752 mmHg 89%
    06:00 +1°C° 0 mm 4 m/S 752 mmHg 86%
    07:00 +1°C° 0 mm 4 m/S 752 mmHg 83%
    08:00 +3°C° 0 mm 4 m/S 753 mmHg 80%
    09:00 +5°C° 0 mm 5 m/S 753 mmHg 73%
    10:00 +7°C° 0 mm 5 m/S 752 mmHg 66%
    11:00 +9°C° 0 mm 5 m/S 752 mmHg 59%
    12:00 +9°C° 0 mm 6 m/S 752 mmHg 58%
    13:00 +10°C° 0 mm 6 m/S 751 mmHg 57%
    14:00 +11°C° 0 mm 6 m/S 751 mmHg 56%
    15:00 +10°C° 0 mm 6 m/S 750 mmHg 58%
    16:00 +9°C° 0 mm 6 m/S 749 mmHg 60%
    17:00 +8°C° 0 mm 6 m/S 749 mmHg 62%
    18:00 +8°C° 0.3 mm 7 m/S 748 mmHg 68%
    19:00 +6°C° 0.3 mm 7 m/S 747 mmHg 73%
    20:00 +5°C° 0.3 mm 8 m/S 747 mmHg 78%
    21:00 +5°C° 0.5 mm 8 m/S 746 mmHg 80%
    22:00 +5°C° 0.5 mm 9 m/S 745 mmHg 83%
    23:00 +5°C° 0.5 mm 10 m/S 744 mmHg 85%

    Morgen, 27 September, Donnerstag

    Zeit Temperatur Niederschläge Wind Luftdruck Luftfeuchtigkeit
    00:00 +5°C° 0.6 mm 10 m/S 743 mmHg 86%
    01:00 +5°C° 0.6 mm 10 m/S 742 mmHg 87%
    02:00 +5°C° 0.6 mm 10 m/S 741 mmHg 88%
    03:00 +5°C° 0.2 mm 10 m/S 740 mmHg 88%
    04:00 +6°C° 0.2 mm 10 m/S 740 mmHg 89%
    05:00 +6°C° 0.2 mm 10 m/S 739 mmHg 89%
    06:00 +7°C° 0.6 mm 9 m/S 739 mmHg 90%
    07:00 +7°C° 0.6 mm 8 m/S 739 mmHg 90%
    08:00 +9°C° 0.6 mm 7 m/S 739 mmHg 91%
    09:00 +10°C° 0.1 mm 6 m/S 740 mmHg 82%
    10:00 +11°C° 0.1 mm 6 m/S 740 mmHg 74%
    11:00 +13°C° 0.1 mm 5 m/S 741 mmHg 65%
    12:00 +13°C° 0 mm 5 m/S 741 mmHg 64%
    13:00 +13°C° 0 mm 6 m/S 741 mmHg 63%
    14:00 +14°C° 0 mm 6 m/S 741 mmHg 61%
    15:00 +13°C° 0 mm 5 m/S 741 mmHg 65%
    16:00 +12°C° 0 mm 5 m/S 741 mmHg 68%
    17:00 +12°C° 0 mm 4 m/S 742 mmHg 72%
    18:00 +11°C° 0 mm 4 m/S 742 mmHg 74%
    19:00 +10°C° 0 mm 4 m/S 742 mmHg 76%
    20:00 +8°C° 0 mm 4 m/S 742 mmHg 78%
    21:00 +8°C° 0 mm 4 m/S 742 mmHg 80%
    22:00 +8°C° 0 mm 4 m/S 742 mmHg 82%
    23:00 +7°C° 0 mm 5 m/S 741 mmHg 85%

    übermorgen, 28 September, Freitag

    Zeit Temperatur Niederschläge Wind Luftdruck Luftfeuchtigkeit
    00:00 +8°C° 0 mm 6 m/S 741 mmHg 85%
    01:00 +9°C° 0 mm 7 m/S 740 mmHg 85%
    02:00 +10°C° 0 mm 8 m/S 739 mmHg 86%
    03:00 +11°C° 0 mm 8 m/S 738 mmHg 85%
    04:00 +11°C° 0 mm 8 m/S 738 mmHg 85%
    05:00 +12°C° 0 mm 9 m/S 737 mmHg 84%
    06:00 +12°C° 0.2 mm 9 m/S 736 mmHg 84%
    07:00 +12°C° 0.2 mm 9 m/S 736 mmHg 85%
    08:00 +12°C° 0.2 mm 9 m/S 736 mmHg 85%
    09:00 +12°C° 0.6 mm 8 m/S 736 mmHg 84%
    10:00 +12°C° 0.6 mm 8 m/S 737 mmHg 84%
    11:00 +12°C° 0.6 mm 8 m/S 737 mmHg 84%
    12:00 +12°C° 0.2 mm 7 m/S 738 mmHg 78%
    13:00 +12°C° 0.2 mm 7 m/S 738 mmHg 73%
    14:00 +12°C° 0.2 mm 7 m/S 739 mmHg 67%
    15:00 +12°C° 0 mm 5 m/S 739 mmHg 70%
    16:00 +11°C° 0 mm 4 m/S 740 mmHg 72%
    17:00 +10°C° 0 mm 3 m/S 740 mmHg 75%
    18:00 +9°C° 0 mm 2 m/S 741 mmHg 78%
    19:00 +8°C° 0 mm 2 m/S 741 mmHg 81%
    20:00 +8°C° 0 mm 1 m/S 742 mmHg 84%
    21:00 +7°C° 0 mm 1 m/S 742 mmHg 85%
    22:00 +7°C° 0 mm 1 m/S 743 mmHg 85%
    23:00 +6°C° 0 mm 1 m/S 743 mmHg 86%

    29 September, Samstag

    Zeit Temperatur Niederschläge Wind Luftdruck Luftfeuchtigkeit
    00:00 +6°C° 0 mm 1 m/S 743 mmHg 87%
    01:00 +6°C° 0 mm 1 m/S 744 mmHg 88%
    02:00 +6°C° 0 mm 1 m/S 744 mmHg 90%
    03:00 +5°C° 0 mm 1 m/S 745 mmHg 91%
    04:00 +4°C° 0 mm 2 m/S 745 mmHg 92%
    05:00 +4°C° 0 mm 2 m/S 746 mmHg 93%
    06:00 +4°C° 0 mm 2 m/S 746 mmHg 90%
    07:00 +5°C° 0 mm 2 m/S 747 mmHg 87%
    08:00 +5°C° 0 mm 2 m/S 747 mmHg 84%
    09:00 +7°C° 0 mm 3 m/S 748 mmHg 76%
    10:00 +8°C° 0 mm 3 m/S 749 mmHg 68%
    11:00 +9°C° 0 mm 3 m/S 749 mmHg 59%
    12:00 +9°C° 0 mm 3 m/S 749 mmHg 56%
    13:00 +10°C° 0 mm 3 m/S 750 mmHg 52%
    14:00 +10°C° 0 mm 3 m/S 750 mmHg 49%
    15:00 +9°C° 0 mm 3 m/S 750 mmHg 52%
    16:00 +8°C° 0 mm 2 m/S 750 mmHg 56%
    17:00 +7°C° 0 mm 2 m/S 751 mmHg 60%
    18:00 +7°C° 0 mm 1 m/S 751 mmHg 61%
    19:00 +6°C° 0 mm 1 m/S 752 mmHg 63%
    20:00 +5°C° 0 mm 1 m/S 752 mmHg 64%
    21:00 +4°C° 0 mm 1 m/S 752 mmHg 65%
    22:00 +4°C° 0 mm 1 m/S 753 mmHg 67%
    23:00 +3°C° 0 mm 0 m/S 753 mmHg 68%

    30 September, Sonntag

    Zeit Temperatur Niederschläge Wind Luftdruck Luftfeuchtigkeit
    00:00 +2°C° 0 mm 0 m/S 753 mmHg 69%
    01:00 +3°C° 0 mm 1 m/S 753 mmHg 69%
    02:00 +3°C° 0 mm 1 m/S 753 mmHg 70%
    03:00 +3°C° 0 mm 1 m/S 753 mmHg 71%
    04:00 +2°C° 0 mm 1 m/S 753 mmHg 72%
    05:00 +1°C° 0 mm 2 m/S 753 mmHg 73%
    06:00 +2°C° 0 mm 2 m/S 753 mmHg 71%
    07:00 +3°C° 0 mm 2 m/S 753 mmHg 69%
    08:00 +4°C° 0 mm 2 m/S 754 mmHg 67%
    09:00 +5°C° 0 mm 3 m/S 753 mmHg 62%
    10:00 +7°C° 0 mm 3 m/S 753 mmHg 57%
    11:00 +9°C° 0 mm 3 m/S 753 mmHg 51%
    12:00 +10°C° 0 mm 3 m/S 753 mmHg 50%
    13:00 +10°C° 0 mm 4 m/S 752 mmHg 48%
    14:00 +11°C° 0 mm 4 m/S 752 mmHg 47%
    15:00 +10°C° 0 mm 3 m/S 751 mmHg 53%
    16:00 +9°C° 0 mm 3 m/S 751 mmHg 59%
    17:00 +8°C° 0 mm 2 m/S 750 mmHg 65%
    18:00 +7°C° 0 mm 2 m/S 750 mmHg 68%
    19:00 +5°C° 0 mm 3 m/S 750 mmHg 71%
    20:00 +4°C° 0 mm 3 m/S 750 mmHg 74%
    21:00 +4°C° 0 mm 3 m/S 750 mmHg 76%
    22:00 +4°C° 0 mm 3 m/S 750 mmHg 78%
    23:00 +4°C° 0 mm 3 m/S 750 mmHg 80%

    1 Oktober, Montag

    Zeit Temperatur Niederschläge Wind Luftdruck Luftfeuchtigkeit
    00:00 +4°C° 0 mm 3 m/S 750 mmHg 81%
    01:00 +4°C° 0 mm 3 m/S 749 mmHg 81%
    02:00 +4°C° 0 mm 3 m/S 749 mmHg 81%
    03:00 +4°C° 0 mm 3 m/S 749 mmHg 82%
    04:00 +4°C° 0 mm 3 m/S 748 mmHg 82%
    05:00 +4°C° 0 mm 3 m/S 748 mmHg 83%
    06:00 +5°C° 0 mm 3 m/S 748 mmHg 81%
    07:00 +5°C° 0 mm 3 m/S 748 mmHg 80%
    08:00 +7°C° 0 mm 3 m/S 748 mmHg 78%
    09:00 +8°C° 0 mm 3 m/S 748 mmHg 73%
    10:00 +10°C° 0 mm 3 m/S 748 mmHg 69%
    11:00 +12°C° 0 mm 3 m/S 747 mmHg 65%
    12:00 +12°C° 0 mm 3 m/S 747 mmHg 64%
    13:00 +13°C° 0 mm 3 m/S 747 mmHg 63%
    14:00 +13°C° 0 mm 4 m/S 746 mmHg 61%
    15:00 +12°C° 0 mm 3 m/S 746 mmHg 66%
    16:00 +11°C° 0 mm 3 m/S 746 mmHg 71%
    17:00 +10°C° 0 mm 3 m/S 745 mmHg 76%
    18:00 +10°C° 0.2 mm 3 m/S 745 mmHg 79%
    19:00 +9°C° 0.2 mm 3 m/S 745 mmHg 81%
    20:00 +9°C° 0.2 mm 3 m/S 745 mmHg 83%
    21:00 +9°C° 0.4 mm 2 m/S 745 mmHg 85%
    22:00 +9°C° 0.4 mm 2 m/S 745 mmHg 86%
    23:00 +9°C° 0.4 mm 2 m/S 745 mmHg 88%
    Mehr zeigen